Radiation Dose at Monitoring Post of Fukushima Daini Nuclear Power Station
Date,Time,MP-1(microSv/h),MP-2(microSv/h),MP-3(microSv/h),MP-4(microSv/h),MP-5(microSv/h),MP-6(microSv/h),MP-7(microSv/h),Wind Direction,Wind Velocity(m/s),Rain
2019/08/15,00:00,0.193,0.172,0.295,0.279,0.272,0.148,0.091,south,4.3,No
2019/08/15,00:10,0.192,0.175,0.294,0.277,0.270,0.149,0.091,south-southeast,3.8,No
2019/08/15,00:20,0.194,0.171,0.295,0.277,0.268,0.147,0.091,south,5.1,No
2019/08/15,00:30,0.196,0.171,0.298,0.280,0.270,0.147,0.090,south,4.8,No
2019/08/15,00:40,0.195,0.171,0.295,0.279,0.273,0.148,0.090,south,4.5,Yes
2019/08/15,00:50,0.193,0.172,0.294,0.277,0.270,0.148,0.090,south,4.3,No
2019/08/15,01:00,0.193,0.172,0.297,0.276,0.268,0.148,0.090,south,4.3,No
2019/08/15,01:10,0.195,0.171,0.297,0.279,0.269,0.147,0.091,south,4.6,No
2019/08/15,01:20,0.194,0.174,0.294,0.280,0.272,0.147,0.091,south,4.5,No
2019/08/15,01:30,0.193,0.172,0.293,0.277,0.270,0.149,0.090,south-southeast,4.8,No
2019/08/15,01:40,0.193,0.172,0.298,0.276,0.268,0.147,0.089,south-southeast,3.6,No
2019/08/15,01:50,0.195,0.173,0.298,0.279,0.268,0.147,0.090,south,3.7,Yes
2019/08/15,02:00,0.193,0.173,0.295,0.278,0.271,0.148,0.092,south,4.6,Yes
2019/08/15,02:10,0.193,0.172,0.293,0.277,0.271,0.149,0.090,south-southeast,4.5,Yes
2019/08/15,02:20,0.193,0.171,0.297,0.275,0.268,0.148,0.092,south,4.2,Yes
2019/08/15,02:30,0.195,0.173,0.297,0.277,0.267,0.147,0.090,south,4.0,Yes
2019/08/15,02:40,0.194,0.174,0.294,0.278,0.270,0.148,0.092,south-southeast,4.1,No
2019/08/15,02:50,0.192,0.171,0.292,0.276,0.270,0.147,0.091,south,4.2,No
2019/08/15,03:00,0.191,0.170,0.296,0.275,0.268,0.148,0.091,south-southeast,4.6,No
2019/08/15,03:10,0.194,0.172,0.297,0.277,0.267,0.147,0.089,south,5.9,No
2019/08/15,03:20,0.194,0.174,0.295,0.279,0.270,0.146,0.089,south,5.2,No
2019/08/15,03:30,0.194,0.171,0.293,0.276,0.271,0.148,0.090,south,5.4,No
2019/08/15,03:40,0.191,0.170,0.295,0.274,0.267,0.148,0.090,south,6.0,No
2019/08/15,03:50,0.194,0.171,0.297,0.275,0.266,0.147,0.089,south,5.5,No
2019/08/15,04:00,0.194,0.173,0.294,0.279,0.270,0.147,0.090,south,4.8,No
2019/08/15,04:10,0.192,0.171,0.294,0.277,0.271,0.146,0.091,south,6.0,No
2019/08/15,04:20,0.190,0.170,0.294,0.275,0.269,0.147,0.090,south,6.5,Yes
2019/08/15,04:30,0.193,0.172,0.297,0.275,0.267,0.146,0.089,south-southeast,6.4,No
2019/08/15,04:40,0.195,0.171,0.295,0.278,0.267,0.146,0.090,south,7.1,No
2019/08/15,04:50,0.192,0.171,0.293,0.275,0.271,0.146,0.090,south,7.3,Yes
2019/08/15,05:00,0.191,0.170,0.294,0.275,0.269,0.147,0.090,south,6.6,No
2019/08/15,05:10,0.192,0.172,0.297,0.274,0.267,0.147,0.089,south,7.0,No
2019/08/15,05:20,0.194,0.171,0.296,0.279,0.268,0.146,0.090,south,6.3,No
2019/08/15,05:30,0.194,0.170,0.294,0.277,0.272,0.146,0.089,south,6.5,No
2019/08/15,05:40,0.191,0.170,0.292,0.275,0.269,0.146,0.090,south,6.8,No
2019/08/15,05:50,0.191,0.172,0.297,0.273,0.267,0.147,0.090,south,7.3,No
2019/08/15,06:00,0.192,0.172,0.297,0.279,0.266,0.148,0.090,south,6.7,No
2019/08/15,06:10,0.194,0.171,0.294,0.278,0.270,0.146,0.090,south-southeast,6.2,No
2019/08/15,06:20,0.193,0.170,0.292,0.275,0.271,0.146,0.091,south-southeast,6.3,No
2019/08/15,06:30,0.191,0.170,0.295,0.274,0.267,0.147,0.089,south,7.0,No
2019/08/15,06:40,0.191,0.173,0.298,0.275,0.267,0.147,0.089,south-southeast,7.4,No
2019/08/15,06:50,0.191,0.171,0.296,0.280,0.267,0.146,0.089,south,7.3,No
2019/08/15,07:00,0.193,0.171,0.292,0.277,0.271,0.146,0.089,south,7.0,No
2019/08/15,07:10,0.193,0.170,0.292,0.276,0.270,0.146,0.089,south-southeast,7.3,No
2019/08/15,07:20,0.192,0.169,0.292,0.274,0.270,0.146,0.089,south,6.6,No
2019/08/15,07:30,0.191,0.169,0.292,0.274,0.267,0.147,0.089,south,7.0,No
2019/08/15,07:40,0.191,0.171,0.293,0.274,0.266,0.147,0.089,south,6.7,No
2019/08/15,07:50,0.191,0.170,0.293,0.275,0.266,0.147,0.089,south,7.0,No
2019/08/15,08:00,0.191,0.171,0.295,0.274,0.266,0.146,0.090,south-southeast,6.7,No
2019/08/15,08:10,0.192,0.170,0.296,0.275,0.267,0.147,0.089,south-southeast,6.8,No
2019/08/15,08:20,0.191,0.170,0.297,0.276,0.267,0.146,0.090,south-southeast,6.5,No
2019/08/15,08:30,0.191,0.172,0.293,0.277,0.267,0.148,0.090,south-southeast,6.7,No
2019/08/15,08:40,0.191,0.171,0.293,0.276,0.267,0.147,0.090,south-southeast,6.7,No
2019/08/15,08:50,0.193,0.170,0.294,0.276,0.268,0.148,0.090,south-southeast,8.6,No
2019/08/15,09:00,0.191,0.171,0.293,0.276,0.268,0.147,0.090,south-southeast,7.7,No
2019/08/15,09:10,0.192,0.171,0.293,0.277,0.268,0.148,0.090,south-southeast,8.8,No
2019/08/15,09:20,0.193,0.171,0.292,0.277,0.270,0.146,0.090,south-southeast,8.7,No
2019/08/15,09:30,0.193,0.172,0.294,0.278,0.269,0.146,0.090,south-southeast,8.8,No
2019/08/15,09:40,0.192,0.171,0.294,0.277,0.271,0.147,0.091,south-southeast,10.3,No
2019/08/15,09:50,0.193,0.172,0.295,0.278,0.270,0.147,0.091,south-southeast,9.2,No
2019/08/15,10:00,0.194,0.172,0.294,0.279,0.270,0.147,0.091,south-southeast,9.0,No
2019/08/15,10:10,0.194,0.173,0.295,0.278,0.270,0.147,0.092,south-southeast,9.0,No
2019/08/15,10:20,0.194,0.174,0.295,0.278,0.271,0.148,0.091,south-southeast,8.4,No
2019/08/15,10:30,0.194,0.171,0.296,0.277,0.270,0.148,0.090,south-southeast,9.0,No
2019/08/15,10:40,0.193,0.171,0.296,0.277,0.271,0.147,0.090,south-southeast,8.4,No
2019/08/15,10:50,0.194,0.171,0.295,0.277,0.270,0.147,0.089,south-southeast,7.9,No
2019/08/15,11:00,0.194,0.172,0.296,0.277,0.269,0.147,0.090,south-southeast,8.4,No
2019/08/15,11:10,0.194,0.172,0.296,0.276,0.269,0.147,0.090,southeast,8.1,No
2019/08/15,11:20,0.193,0.173,0.296,0.276,0.270,0.147,0.091,south-southeast,7.8,No
2019/08/15,11:30,0.194,0.172,0.296,0.277,0.270,0.148,0.090,south-southeast,8.1,No
2019/08/15,11:40,0.193,0.172,0.296,0.276,0.270,0.148,0.090,south-southeast,7.3,No
2019/08/15,11:50,0.193,0.173,0.297,0.277,0.269,0.147,0.090,southeast,6.7,No
2019/08/15,12:00,0.194,0.173,0.296,0.276,0.270,0.147,0.090,southeast,8.1,No
2019/08/15,12:10,0.194,0.172,0.295,0.278,0.270,0.147,0.092,south-southeast,9.0,No
2019/08/15,12:20,0.192,0.172,0.296,0.278,0.269,0.148,0.091,south-southeast,9.0,No
2019/08/15,12:30,0.193,0.173,0.296,0.280,0.271,0.147,0.092,south-southeast,8.1,No
2019/08/15,12:40,0.193,0.173,0.297,0.280,0.271,0.147,0.091,south-southeast,9.6,No
2019/08/15,12:50,0.193,0.172,0.298,0.279,0.270,0.148,0.091,south-southeast,10.4,No
2019/08/15,13:00,0.193,0.172,0.298,0.280,0.271,0.148,0.090,south-southeast,10.1,No
2019/08/15,13:10,0.195,0.171,0.299,0.278,0.271,0.147,0.090,south-southeast,9.3,No
2019/08/15,13:20,0.193,0.173,0.295,0.279,0.271,0.149,0.090,south-southeast,8.1,No
2019/08/15,13:30,0.194,0.172,0.296,0.278,0.270,0.148,0.090,south-southeast,9.2,No
2019/08/15,13:40,0.195,0.172,0.296,0.277,0.271,0.147,0.091,south-southeast,9.5,No
2019/08/15,13:50,0.194,0.172,0.297,0.277,0.270,0.148,0.090,south-southeast,9.0,No
2019/08/15,14:00,0.193,0.171,0.296,0.279,0.270,0.148,0.090,south,8.8,No
2019/08/15,14:10,0.194,0.172,0.295,0.278,0.271,0.148,0.090,south-southeast,9.5,No
2019/08/15,14:20,0.195,0.172,0.296,0.277,0.270,0.148,0.090,south-southeast,10.1,No
2019/08/15,14:30,0.193,0.173,0.296,0.278,0.269,0.148,0.091,south-southeast,9.0,No
2019/08/15,14:40,0.193,0.173,0.296,0.279,0.269,0.149,0.091,south-southeast,8.6,No
2019/08/15,14:50,0.193,0.173,0.296,0.278,0.270,0.147,0.090,south-southeast,7.8,No
2019/08/15,15:00,0.193,0.172,0.295,0.279,0.270,0.148,0.089,south-southeast,9.5,No
2019/08/15,15:10,0.193,0.172,0.296,0.279,0.270,0.146,0.090,south-southeast,9.5,No
2019/08/15,15:20,0.192,0.171,0.296,0.276,0.270,0.148,0.090,south-southeast,9.5,No
2019/08/15,15:30,0.193,0.172,0.295,0.278,0.271,0.147,0.090,south-southeast,9.5,No
2019/08/15,15:40,0.192,0.172,0.295,0.276,0.269,0.147,0.090,south-southeast,9.2,No
2019/08/15,15:50,0.194,0.171,0.295,0.278,0.269,0.147,0.090,south-southeast,9.8,No
2019/08/15,16:00,0.193,0.172,0.294,0.276,0.269,0.148,0.090,south-southeast,8.7,No
2019/08/15,16:10,0.193,0.172,0.295,0.277,0.269,0.148,0.090,south-southeast,8.7,No
2019/08/15,16:20,0.193,0.172,0.294,0.278,0.269,0.147,0.090,south-southeast,9.5,No
2019/08/15,16:30,0.191,0.172,0.295,0.282,0.269,0.148,0.090,south-southeast,7.3,No
2019/08/15,16:40,0.193,0.171,0.300,0.281,0.269,0.148,0.090,south-southeast,7.6,No
2019/08/15,16:50,0.192,0.171,0.301,0.280,0.270,0.147,0.089,south-southeast,7.0,No
2019/08/15,17:00,0.193,0.172,0.299,0.277,0.269,0.149,0.091,south-southeast,8.1,No
2019/08/15,17:10,0.194,0.170,0.297,0.277,0.273,0.148,0.091,south,6.3,No
2019/08/15,17:20,0.196,0.171,0.297,0.278,0.273,0.149,0.090,south,5.4,No
2019/08/15,17:30,0.195,0.174,0.295,0.281,0.271,0.148,0.090,south-southeast,6.0,No
2019/08/15,17:40,0.194,0.173,0.296,0.281,0.270,0.148,0.090,south-southeast,7.7,No
2019/08/15,17:50,0.193,0.173,0.299,0.279,0.269,0.148,0.090,south-southeast,8.2,No
2019/08/15,18:00,0.192,0.172,0.298,0.277,0.269,0.148,0.090,south,8.6,No
2019/08/15,18:10,0.193,0.171,0.297,0.277,0.272,0.149,0.091,south-southeast,9.2,No
2019/08/15,18:20,0.195,0.172,0.296,0.279,0.272,0.148,0.091,south-southeast,8.4,No
2019/08/15,18:30,0.196,0.173,0.294,0.282,0.271,0.148,0.090,south,8.4,No
2019/08/15,18:40,0.195,0.174,0.299,0.280,0.269,0.148,0.090,south-southeast,8.4,No
2019/08/15,18:50,0.193,0.172,0.299,0.279,0.269,0.147,0.090,south-southeast,9.8,No
2019/08/15,19:00,0.191,0.172,0.297,0.277,0.271,0.148,0.091,south-southeast,9.2,No
2019/08/15,19:10,0.193,0.171,0.295,0.278,0.274,0.148,0.091,south,9.3,No
2019/08/15,19:20,0.197,0.173,0.295,0.281,0.273,0.148,0.090,south-southeast,8.4,No
2019/08/15,19:30,0.195,0.173,0.298,0.280,0.271,0.147,0.090,south-southeast,8.5,No
2019/08/15,19:40,0.195,0.172,0.298,0.279,0.268,0.148,0.090,south-southeast,9.8,No
2019/08/15,19:50,0.193,0.173,0.297,0.277,0.270,0.148,0.091,south-southeast,9.2,No
2019/08/15,20:00,0.192,0.171,0.296,0.278,0.273,0.148,0.092,south-southeast,9.0,No
2019/08/15,20:10,0.193,0.172,0.295,0.281,0.273,0.148,0.091,south-southeast,10.4,No
2019/08/15,20:20,0.195,0.174,0.297,0.280,0.271,0.148,0.090,south-southeast,10.1,No
2019/08/15,20:30,0.193,0.173,0.298,0.279,0.269,0.148,0.090,south-southeast,9.0,Yes
2019/08/15,20:40,0.194,0.171,0.297,0.278,0.269,0.148,0.090,south,10.4,No
2019/08/15,20:50,0.193,0.171,0.295,0.276,0.273,0.148,0.091,south,10.7,Yes
2019/08/15,21:00,0.191,0.172,0.294,0.280,0.273,0.149,0.090,south-southeast,11.2,Yes
2019/08/15,21:10,0.195,0.174,0.297,0.281,0.271,0.148,0.091,south-southeast,9.3,Yes
2019/08/15,21:20,0.195,0.173,0.299,0.279,0.269,0.147,0.090,south-southeast,10.6,No
2019/08/15,21:30,0.195,0.172,0.297,0.278,0.270,0.148,0.091,south-southeast,9.8,No
2019/08/15,21:40,0.193,0.171,0.294,0.278,0.273,0.149,0.091,south-southeast,10.4,No
2019/08/15,21:50,0.192,0.173,0.295,0.281,0.270,0.149,0.090,south,10.9,No
2019/08/15,22:00,0.194,0.174,0.299,0.280,0.270,0.148,0.090,south-southeast,10.6,Yes
2019/08/15,22:10,0.196,0.172,0.298,0.278,0.269,0.147,0.090,south-southeast,9.8,No
2019/08/15,22:20,0.194,0.172,0.295,0.277,0.272,0.148,0.091,south,10.7,No
2019/08/15,22:30,0.193,0.172,0.293,0.281,0.272,0.148,0.091,south-southeast,10.3,Yes
2019/08/15,22:40,0.192,0.174,0.297,0.281,0.270,0.148,0.091,south,10.4,No
2019/08/15,22:50,0.195,0.173,0.299,0.279,0.268,0.148,0.090,south-southeast,11.1,Yes
2019/08/15,23:00,0.195,0.172,0.296,0.276,0.270,0.148,0.091,south,11.3,Yes
2019/08/15,23:10,0.194,0.171,0.295,0.278,0.273,0.148,0.091,south-southeast,12.0,Yes
2019/08/15,23:20,0.192,0.173,0.295,0.281,0.270,0.149,0.091,south,10.3,Yes
2019/08/15,23:30,0.193,0.173,0.299,0.279,0.269,0.148,0.091,south-southeast,10.1,No
2019/08/15,23:40,0.194,0.173,0.297,0.277,0.270,0.148,0.091,south-southeast,10.7,Yes
2019/08/15,23:50,0.193,0.170,0.294,0.277,0.271,0.148,0.092,south-southeast,10.9,Yes
